This is the latest recevied weather packets stored in our database for station/object KB1FFS. If no packets are shown the sender has not sent any weather packets the latest 10 day(s).
| Time | Temp. | Humidity | Pressure | Rain* | Wind** | Luminosity | Snow |
|---|---|---|---|---|---|---|---|
| 1787931304 | 35° C | 52% | 1019.4 hPa | 0 mm | - | 488 W/m² | - |
| 1787931003 | 34.44° C | 51% | 1019.5 hPa | 0 mm | - | 469 W/m² | - |
| 1787930702 | 34.44° C | 52% | 1019.4 hPa | 0 mm | - | 450 W/m² | - |
| 1787930397 | 33.89° C | 53% | 1019.2 hPa | 0 mm | - | 431 W/m² | - |
| 1787930092 | 33.89° C | 54% | 1019.3 hPa | 0 mm | - | 411 W/m² | - |
| 1787929790 | 33.33° C | 54% | 1019.3 hPa | 0 mm | - | 399 W/m² | - |
| 1787929486 | 32.78° C | 55% | 1019.1 hPa | 0 mm | - | 384 W/m² | - |
| 1787929183 | 32.78° C | 56% | 1019.3 hPa | 0 mm | - | 367 W/m² | - |
| 1787928879 | 32.22° C | 56% | 1019.3 hPa | 0 mm | - | 349 W/m² | - |
| 1787928579 | 31.67° C | 57% | 1019.2 hPa | 0 mm | - | 330 W/m² | - |
| 1787928277 | 31.67° C | 57% | 1019.5 hPa | 0 mm | - | 314 W/m² | - |
| 1787927977 | 31.11° C | 58% | 1019.3 hPa | 0 mm | - | 296 W/m² | - |
| 1787927677 | 31.11° C | 59% | 1019.6 hPa | 0 mm | - | 276 W/m² | - |
| 1787927376 | 30.56° C | 60% | 1019.5 hPa | 0 mm | - | 255 W/m² | - |
| 1787927073 | 30° C | 60% | 1019.3 hPa | 0 mm | - | 233 W/m² | - |
| 1787926767 | 29.44° C | 63% | 1019.4 hPa | 0 mm | - | 208 W/m² | - |
| 1787926466 | 28.89° C | 63% | 1019.5 hPa | 0 mm | - | 149 W/m² | - |
| 1787926166 | 28.33° C | 66% | 1019.3 hPa | 0 mm | - | 93 W/m² | - |
| 1787925865 | 27.78° C | 66% | 1019.5 hPa | 0 mm | - | 65 W/m² | - |
| 1787925565 | 27.78° C | 67% | 1019.4 hPa | 0 mm | - | 49 W/m² | - |
| 1787925260 | 27.22° C | 68% | 1019.5 hPa | 0 mm | - | 45 W/m² | - |
| 1787924959 | 26.67° C | 68% | 1019.6 hPa | 0 mm | - | 43 W/m² | - |
| 1787924654 | 26.67° C | 68% | 1019.7 hPa | 0 mm | - | 42 W/m² | - |
| 1787924348 | 26.67° C | 68% | 1019.5 hPa | 0 mm | - | 41 W/m² | - |
| 1787924043 | 26.11° C | 69% | 1019.7 hPa | 0 mm | - | 39 W/m² | - |
* Rain latest hour (hover to see other rain measurements)
** Current wind speed in m/s (hover to see current wind gust speed)